�ϑ��N����2022/09/28,,,,
�ϑ���,���V���Y,,,
�ϑ��n�_,�P�V,,,
���x�v�ԍ�,�Q�X,,,
,,,,
,,,,
9:30:00,-999,-999,-999,
9:31:00,-999,-999,-999,
9:32:00,-999,-999,-999,
9:33:00,-999,-999,-999,
9:34:00,-999,-999,-999,
9:35:00,25,-999,-999,
9:36:00,25,-999,-999,
9:37:00,25,-999,-999,
9:38:00,25,-999,-999,
9:39:00,25.2,1,0,���ꂽ
9:40:00,25.5,1,1,
9:41:00,25.5,3,0.1,
9:42:00,25.5,1,0.1,
9:43:00,25.5,2,0.1,
9:44:00,25.6,3,1,
9:45:00,25.6,4,0.1,
9:46:00,25.6,4,0.1,
9:47:00,25.5,6,0.2,
9:48:00,25.5,8,1,
9:49:00,25.7,2,1.5,
9:50:00,25,2,0.5,�A����
9:51:00,25,-999,0,
9:52:00,25.4,3,0.3,
9:53:00,25.2,4,1,
9:54:00,25.1,4,1,
9:55:00,25,,0,
9:56:00,25,-999,0,
9:57:00,25,3,0.1,
9:58:00,25.3,4,0.5,���ꂽ
9:59:00,25.4,-999,0,
10:00:00,25.4,6,0.1,
10:01:00,26,2,0.1,
10:02:00,25.9,2,0.4,
10:03:00,26,3,0.1,
10:04:00,26,2,0.1,
10:05:00,26,2,0.1,
10:06:00,26.2,3,0.1,
10:07:00,26.1,-999,0,
10:08:00,26.2,3,0.1,
10:09:00,26.3,4,0,
10:10:00,26.5,4,0.1,
10:11:00,26.5,3,0.1,
10:12:00,26.5,4,0.1,
10:13:00,26.5,-999,0,
10:14:00,26.3,2,0.2,
10:15:00,26.4,3,0.1,
10:16:00,26.6,3,0.1,
10:17:00,26.5,7,0.1,
10:18:00,26.3,7,0.1,
10:19:00,26.2,8,0,
10:20:00,26.5,7,0.1,
10:21:00,26.2,1,0.1,
10:22:00,27,3,0.1,
10:23:00,27.3,2,0.1,���ꂽ
10:24:00,27.3,1,0.1,
10:25:00,27,3,0.9,
10:26:00,27,4,1,
10:27:00,26.9,2,0.5,�B�ꂽ
10:28:00,27.1,7,0.1,���ꂽ
10:29:00,27,-999,0,
10:30:00,27.2,-999,0,
10:31:00,26.8,2,0.1,
10:32:00,26.5,3,0.3,
10:33:00,26.8,3,0.1,���ꂽ
10:34:00,27.1,3,0.1,
10:35:00,27.5,-999,0,
10:36:00,27.3,3,0.1,
10:37:00,27.3,3,0.1,
10:38:00,27.5,2,1.1,
10:39:00,27.2,3,0.1,
10:40:00,27.2,2,0.1,
10:41:00,27.5,2,0.1,
10:42:00,27.8,,0.1,
10:43:00,28,3,0.1,
10:44:00,28.2,4,0.2,
10:45:00,28.1,3,0.1,
10:46:00,28,2,0.1,
10:47:00,27.7,-999,0,�e
10:48:00,27,3,0.1,
10:49:00,27,-999,0,
10:50:00,27.3,3,1,
10:51:00,27.5,-999,0,
10:52:00,27.3,-999,0,
10:53:00,27.1,3,0.1,
10:54:00,27.5,3,0.1,
10:55:00,27.2,4,0.1,
10:56:00,27.2,-999,0,
10:57:00,27.3,4,0.1,
10:58:00,27.3,-999,0,
10:59:00,27.3,2,0.1,
11:00:00,27.1,-999,0.1,�o��
11:01:00,217.3,2,0.1,
11:02:00,27.3,-999,0,
11:03:00,27.8,3,0.1,
11:04:00,28,3,0.1,
11:05:00,28.3,3,0.1,
11:06:00,27.8,2,0.5,�܂�
11:07:00,27.2,2,0.1,
11:08:00,27,2,0.1,
11:09:00,27.1,2,0.1,
11:10:00,27.3,7,0.1,
11:11:00,27.3,-999,0.1,
11:12:00,27.6,4,0,
11:13:00,27.6,-999,0.1,
11:14:00,27.5,7,0.1,
11:15:00,27.5,4,0.1,
11:16:00,27.5,7,0.1,�o��
11:17:00,27.8,3,0.1,
11:18:00,27.8,3,0.1,
11:19:00,27.9,3,0.1,
11:20:00,27.9,3,1,
11:21:00,27.9,7,0.1,
11:22:00,27.9,-999,0,
11:23:00,28,3,0.1,
11:24:00,28,-999,0.1,
11:25:00,27.9,3,0.5,
11:26:00,27.7,3,0.6,�e
11:27:00,27.3,3,0.1,
11:28:00,27,4,0.1,
11:29:00,26.9,3,0.1,
11:30:00,26.8,2,0.5,
